Weather History for PAGS - September, 2011

Change the Weather History Date:

Tuesday, September 20, 2011

  Actual Average Record
Temperature  
Mean Temperature 54 °F -  
Max Temperature 57 °F - - ()
Min Temperature 51 °F - - ()
Degree Days  
Heating Degree Days 11    
Growing Degree Days 4 (Base 50)    
Moisture  
Dew Point 48 °F    
Average Humidity 79    
Maximum Humidity 88    
Minimum Humidity 72    
Precipitation  
Precipitation 0.00 in - - ()
Sea Level Pressure  
Sea Level Pressure 29.41 in    
Wind  
Wind Speed 16 mph (SE)    
Max Wind Speed 28 mph    
Max Gust Speed 36 mph    
Visibility 10 miles    
Events      
T = Trace of Precipitation, MM = Missing Value Source: NWS Daily Summary

Daily Weather History Graph

Daily Weather History Graph

Search for Another Location

Airport or City:

Trip Planner

Search our weather history database for the weather conditions in past years. The results will help you decide how hot, cold, wet, or windy it might be!

Date:

Astronomy

Sep. 20, 2011 Rise Set
Actual Time 6:42 AM AKDT 7:08 PM AKDT
Civil Twilight 6:03 AM AKDT 7:47 PM AKDT
Nautical Twilight 5:14 AM AKDT 8:35 PM AKDT
Astronomical Twilight 4:22 AM AKDT 9:27 PM AKDT
Moon 10:50 PM AKDT (9/20) 4:01 PM AKDT (9/20)
Length of Visible Light 13h 44m
Length of Day
12h 25m
Waning Gibbous, 47% of the Moon is Illuminated
Sep 20
Waning Gibbous
Sep 27
New
Oct 3
First Quarter
Oct 11
Full
Oct 19
Last Quarter

Hourly Weather History & Observations

Time (AKDT) Temp. Dew Point Humidity Pressure Visibility Wind Dir Wind Speed Gust Speed Precip Events Conditions
12:16 AM 53.6 °F 46.4 °F 77% 29.46 in 10.0 mi SE 19.6 mph 26.5 mph N/A   Overcast
12:36 AM 53.6 °F 46.4 °F 77% 29.45 in 10.0 mi SE 20.7 mph 33.4 mph N/A   Overcast
12:56 AM 53.6 °F 46.4 °F 77% 29.43 in 10.0 mi SE 18.4 mph 31.1 mph N/A   Overcast
1:36 AM 53.6 °F 46.4 °F 77% 29.43 in 10.0 mi SE 19.6 mph 28.8 mph N/A   Overcast
1:56 AM 53.6 °F 46.4 °F 77% 29.42 in 10.0 mi SE 20.7 mph 28.8 mph N/A   Overcast
2:16 AM 53.6 °F 46.4 °F 77% 29.41 in 10.0 mi SE 19.6 mph 31.1 mph N/A   Overcast
2:36 AM 53.6 °F 46.4 °F 77% 29.41 in 10.0 mi SE 21.9 mph 29.9 mph N/A   Overcast
2:56 AM 53.6 °F 46.4 °F 77% 29.39 in 10.0 mi SE 21.9 mph 31.1 mph N/A   Overcast
3:16 AM 53.6 °F 46.4 °F 77% 29.39 in 10.0 mi SE 19.6 mph 27.6 mph N/A   Overcast
4:16 AM 53.6 °F 46.4 °F 77% 29.37 in 10.0 mi SE 27.6 mph 35.7 mph N/A   Overcast
5:36 AM 55.4 °F 46.4 °F 72% 29.38 in 10.0 mi SE 21.9 mph 31.1 mph N/A   Overcast
5:56 AM 55.4 °F 46.4 °F 72% 29.39 in 10.0 mi SE 21.9 mph 28.8 mph N/A   Overcast
6:16 AM 55.4 °F 46.4 °F 72% 29.40 in 10.0 mi SE 19.6 mph 28.8 mph N/A   Overcast
6:36 AM 55.4 °F 46.4 °F 72% 29.40 in 10.0 mi SSE 16.1 mph 21.9 mph N/A   Overcast
6:56 AM 53.6 °F 46.4 °F 77% 29.41 in 10.0 mi SSE 12.7 mph 20.7 mph N/A   Overcast
7:16 AM 53.6 °F 48.2 °F 82% 29.42 in 10.0 mi SE 13.8 mph 23.0 mph N/A   Overcast
7:36 AM 53.6 °F 48.2 °F 82% 29.41 in 10.0 mi SE 12.7 mph 18.4 mph N/A   Overcast
7:56 AM 53.6 °F 48.2 °F 82% 29.41 in 10.0 mi SE 13.8 mph - N/A   Overcast
8:16 AM 53.6 °F 48.2 °F 82% 29.41 in 9.0 mi SE 13.8 mph - N/A   Overcast
8:36 AM 55.4 °F 48.2 °F 77% 29.41 in 10.0 mi SE 11.5 mph 16.1 mph N/A   Overcast
8:56 AM 55.4 °F 48.2 °F 77% 29.40 in 10.0 mi SE 11.5 mph 17.3 mph N/A   Overcast
9:16 AM 55.4 °F 48.2 °F 77% 29.41 in 10.0 mi SSE 13.8 mph 23.0 mph N/A   Overcast
9:36 AM 55.4 °F 48.2 °F 77% 29.40 in 10.0 mi SE 15.0 mph - N/A   Overcast
9:56 AM 55.4 °F 48.2 °F 77% 29.40 in 10.0 mi SE 13.8 mph 20.7 mph N/A   Overcast
10:16 AM 55.4 °F 48.2 °F 77% 29.41 in 7.0 mi SE 10.4 mph - N/A   Overcast
10:36 AM 55.4 °F 50.0 °F 82% 29.41 in 10.0 mi SE 8.1 mph - N/A   Overcast
10:56 AM 55.4 °F 50.0 °F 82% 29.41 in 10.0 mi ESE 8.1 mph - N/A   Overcast
11:16 AM 55.4 °F 50.0 °F 82% 29.40 in 10.0 mi SSE 9.2 mph - N/A   Overcast
11:36 AM 55.4 °F 48.2 °F 77% 29.39 in 10.0 mi SE 9.2 mph - N/A   Overcast
11:56 AM 57.2 °F 48.2 °F 72% 29.39 in 10.0 mi SE 12.7 mph 16.1 mph N/A   Overcast
12:16 PM 57.2 °F 48.2 °F 72% 29.39 in 10.0 mi SE 12.7 mph 19.6 mph N/A   Overcast
12:36 PM 57.2 °F 48.2 °F 72% 29.40 in 10.0 mi SE 11.5 mph - N/A   Overcast
12:56 PM 57.2 °F 48.2 °F 72% 29.40 in 10.0 mi SE 20.7 mph 26.5 mph N/A   Overcast
1:16 PM 57.2 °F 48.2 °F 72% 29.40 in 10.0 mi SE 18.4 mph 21.9 mph N/A   Overcast
1:36 PM 57.2 °F 48.2 °F 72% 29.40 in 10.0 mi SE 19.6 mph 26.5 mph N/A   Overcast
2:16 PM 55.4 °F 46.4 °F 72% 29.41 in 10.0 mi SE 17.3 mph 25.3 mph N/A   Overcast
2:36 PM 55.4 °F 46.4 °F 72% 29.41 in 10.0 mi SE 17.3 mph - N/A   Overcast
2:56 PM 55.4 °F 48.2 °F 77% 29.41 in 10.0 mi SE 13.8 mph 21.9 mph N/A   Overcast
3:16 PM 53.6 °F 48.2 °F 82% 29.41 in 9.0 mi SE 12.7 mph - N/A   Overcast
3:36 PM 53.6 °F 48.2 °F 82% 29.41 in 10.0 mi SE 10.4 mph - N/A   Overcast
3:56 PM 53.6 °F 48.2 °F 82% 29.41 in 6.0 mi SSE 8.1 mph - N/A   Overcast
4:16 PM 53.6 °F 48.2 °F 82% 29.41 in 8.0 mi SSE 12.7 mph 18.4 mph N/A   Overcast
4:36 PM 53.6 °F 48.2 °F 82% 29.41 in 8.0 mi SSE 16.1 mph 20.7 mph N/A   Mostly Cloudy
5:16 PM 53.6 °F 48.2 °F 82% 29.41 in 10.0 mi SE 17.3 mph 23.0 mph N/A   Overcast
5:36 PM 53.6 °F 48.2 °F 82% 29.41 in 9.0 mi SE 19.6 mph 23.0 mph N/A   Overcast
5:56 PM 53.6 °F 48.2 °F 82% 29.41 in 9.0 mi SE 13.8 mph - N/A   Overcast
6:16 PM 53.6 °F 48.2 °F 82% 29.41 in 10.0 mi ESE 12.7 mph - N/A   Overcast
6:36 PM 53.6 °F 48.2 °F 82% 29.41 in 10.0 mi SE 15.0 mph 21.9 mph N/A   Overcast
6:56 PM 53.6 °F 46.4 °F 77% 29.42 in 8.0 mi SE 13.8 mph 24.2 mph N/A   Overcast
7:16 PM 53.6 °F 48.2 °F 82% 29.43 in 9.0 mi SSE 13.8 mph 19.6 mph N/A   Overcast
7:36 PM 51.8 °F 48.2 °F 88% 29.43 in 10.0 mi SE 13.8 mph 17.3 mph N/A   Overcast
7:56 PM 51.8 °F 48.2 °F 88% 29.43 in 10.0 mi ESE 12.7 mph 20.7 mph N/A   Overcast
8:16 PM 51.8 °F 48.2 °F 88% 29.43 in 10.0 mi ESE 13.8 mph 18.4 mph N/A   Overcast
8:36 PM 51.8 °F 48.2 °F 88% 29.44 in 10.0 mi ESE 9.2 mph - N/A   Overcast
9:16 PM 51.8 °F 46.4 °F 82% 29.44 in 10.0 mi SE 8.1 mph - N/A   Overcast
9:36 PM 51.8 °F 46.4 °F 82% 29.44 in 10.0 mi ESE 6.9 mph - N/A   Overcast
9:56 PM 51.8 °F 46.4 °F 82% 29.43 in 10.0 mi ESE 3.5 mph - N/A   Mostly Cloudy
10:16 PM 51.8 °F 46.4 °F 82% 29.43 in 8.0 mi South 4.6 mph - N/A   Mostly Cloudy
10:36 PM 51.8 °F 48.2 °F 88% 29.43 in 8.0 mi SSE 5.8 mph - N/A   Mostly Cloudy
11:16 PM 53.6 °F 46.4 °F 77% 29.41 in 10.0 mi SE 9.2 mph - N/A   Overcast
11:36 PM 53.6 °F 46.4 °F 77% 29.40 in 10.0 mi SE 9.2 mph - N/A   Overcast
11:56 PM 53.6 °F 46.4 °F 77% 29.39 in 10.0 mi SE 6.9 mph - N/A   Overcast